Theta_e
325 329 333 335 333 328 329 337 343 342 340 343 347 345 340 340 339 343 342 346 344 340 334 329 327 325 323 320 317 316 313 313 316 316 316 315 315 315 315 316 317 315 314 314
327 330 328 326 324 329 336 342 343 340 338 342 344 347 344 343 342 341 340 340 344 341 337 331 328 327 325 322 318 318 314 313 314 315 315 315 315 315 316 316 316 314 314 313
330 328 325 330 335 338 340 341 342 342 341 340 342 344 343 340 340 340 340 337 339 342 340 335 329 327 325 323 320 318 313 313 312 314 315 316 315 316 316 316 314 314 314 313
328 325 329 332 333 334 337 335 340 341 341 345 339 341 340 341 340 338 342 337 341 342 340 337 332 328 325 323 321 318 313 312 314 314 316 316 316 316 316 315 314 314 314 313
328 326 327 331 331 334 338 338 338 336 341 343 343 342 339 339 340 339 339 338 339 342 341 338 334 329 326 322 321 318 314 313 313 314 314 316 317 316 315 315 315 315 314 313
326 325 326 333 334 335 335 336 335 335 337 341 341 343 343 344 339 338 337 338 338 340 341 338 334 328 326 322 320 318 316 315 313 314 315 316 317 317 316 316 315 314 313 313
329 329 333 333 335 333 335 340 341 341 342 342 342 344 341 339 337 337 338 338 336 337 338 337 332 328 327 323 321 319 317 317 315 315 316 316 317 317 317 316 315 314 313 312
330 331 334 328 335 337 338 336 336 337 338 336 341 346 342 337 336 335 335 339 337 339 335 335 330 327 327 324 321 319 318 317 316 316 316 315 316 317 317 316 315 313 313 312
332 333 332 330 328 334 336 334 331 341 340 342 341 342 339 337 339 337 337 339 339 337 333 332 326 326 327 324 322 319 318 317 316 315 315 316 315 317 317 316 315 314 313 312
333 333 334 331 330 328 332 328 334 336 339 337 340 343 342 342 341 339 337 337 337 334 331 326 325 325 326 325 322 319 318 317 316 315 315 316 315 316 317 315 316 315 314 313
333 338 336 334 334 332 331 332 332 336 338 336 337 333 342 342 341 341 337 335 334 332 330 326 325 325 326 324 321 319 317 317 316 315 315 316 316 316 316 316 315 315 314 314
334 341 340 335 332 331 329 331 335 334 338 340 340 338 334 339 338 339 339 333 331 331 328 326 325 324 323 323 320 318 318 317 316 316 315 316 315 314 316 317 317 315 315 314
337 340 340 336 334 332 336 330 331 336 339 345 338 334 336 339 339 338 338 332 329 328 327 326 323 322 322 321 319 317 317 317 317 316 316 316 316 316 316 315 317 317 316 315
340 337 342 338 335 332 336 331 331 337 340 338 338 337 337 341 340 339 336 335 330 328 328 326 324 322 321 319 318 317 317 316 316 317 316 316 316 316 316 315 315 317 317 315
337 341 334 331 330 333 333 332 331 334 336 335 334 337 337 339 341 339 338 334 329 328 327 326 325 323 321 320 318 318 318 317 316 316 316 316 317 316 315 315 316 316 316 316
332 338 335 335 335 334 336 333 331 332 333 334 339 339 337 338 336 336 336 333 330 329 328 326 324 323 322 321 320 318 318 318 317 317 316 316 316 316 316 316 316 316 316 317
339 340 338 335 336 335 335 334 333 333 335 336 338 337 338 339 339 340 337 333 332 330 328 325 324 323 322 321 321 319 319 318 317 317 316 316 316 316 316 316 316 317 317 316
337 339 335 333 338 332 333 334 335 336 337 338 337 337 337 338 336 334 333 334 332 329 327 325 324 323 322 321 321 320 319 318 317 317 316 316 316 316 316 316 317 317 317 314
335 339 339 338 335 334 335 336 337 338 340 336 337 336 336 334 334 338 331 331 331 328 325 325 324 323 322 321 321 320 319 318 318 317 316 316 315 316 316 316 317 317 316 315
337 338 338 339 338 338 337 336 334 334 339 334 335 337 338 335 333 335 330 326 327 325 324 324 323 322 322 321 321 320 320 318 318 317 317 316 316 316 316 317 317 317 314 314
344 344 343 340 343 340 337 335 333 339 341 334 334 336 336 337 335 332 326 326 325 325 324 324 322 323 323 322 319 320 320 319 318 317 316 316 316 315 315 315 315 315 317 318
345 350 349 346 345 340 336 336 338 341 340 335 333 334 335 334 332 328 326 327 326 325 324 323 323 324 323 320 320 321 320 319 318 317 317 317 316 316 316 316 316 317 318 318
341 341 345 344 339 337 336 339 338 338 340 336 332 333 333 333 331 328 328 328 327 326 325 324 324 325 323 321 321 322 321 321 319 318 318 318 317 317 316 317 317 318 319 319
338 335 339 340 338 337 337 336 338 337 337 333 330 331 332 334 331 329 328 328 327 326 326 325 325 325 324 323 321 321 322 321 320 320 320 320 320 320 318 318 318 318 318 319
335 337 338 339 337 336 337 335 336 334 332 330 329 331 332 333 331 330 329 328 327 326 325 325 325 325 325 325 324 323 322 321 321 321 321 321 321 321 320 319 319 319 320 320
335 338 336 336 337 341 339 335 334 333 332 331 329 330 332 331 331 328 328 327 327 326 325 325 325 325 324 324 324 323 323 322 321 322 322 322 322 321 321 320 320 320 319 319
Wind_Speed
3 6 6 12 14 2 3 6 8 2 3 2 4 9 13 11 9 7 6 7 8 8 8 8 6 3 4 8 10 11 11 9 7 6 7 7 9 10 11 12 14 16 18 20
3 2 2 5 5 7 9 14 6 5 2 0 5 4 8 8 6 8 9 9 9 9 9 10 7 4 1 4 4 5 8 7 7 7 6 6 7 7 9 12 14 17 18 19
3 3 1 5 12 13 6 3 8 5 7 6 5 3 7 5 8 8 10 10 10 12 11 11 9 6 4 2 1 3 6 6 7 7 6 6 6 7 11 13 14 16 17 17
2 1 6 10 5 2 5 2 9 13 5 1 2 2 6 7 9 10 12 13 12 12 11 12 11 8 7 5 3 1 4 5 4 7 7 9 9 9 9 10 11 14 15 16
2 2 3 4 3 3 4 10 11 6 4 2 4 4 3 2 10 13 13 13 12 13 14 13 14 11 10 7 5 2 2 4 4 5 7 7 8 8 8 9 11 13 14 14
2 1 3 4 9 6 18 10 6 4 1 3 2 3 3 6 10 8 12 16 14 14 15 14 12 12 11 8 6 4 3 3 4 3 5 6 5 7 9 10 11 13 13 13
3 3 4 13 12 7 3 6 2 2 3 2 3 3 7 7 10 8 11 13 12 14 12 12 16 14 13 11 7 6 4 3 4 3 4 5 6 6 7 9 10 12 12 12
2 3 6 5 3 6 13 2 3 3 2 1 3 5 1 2 5 7 9 12 12 14 11 14 15 14 14 11 8 7 6 4 3 3 4 6 7 6 6 7 8 9 11 12
4 2 1 1 4 5 6 6 3 5 1 3 1 4 9 3 3 6 7 10 13 15 12 13 15 14 13 11 8 7 7 6 4 3 3 5 7 6 6 7 7 8 9 11
5 3 2 4 4 8 3 8 2 1 1 2 3 4 4 4 6 8 9 11 12 11 12 12 13 12 12 10 8 8 7 7 6 3 3 5 6 6 5 7 7 8 9 10
5 1 2 3 3 5 4 3 5 2 2 1 2 3 5 6 6 11 12 12 12 13 13 12 13 13 11 9 8 9 8 9 8 6 4 4 5 6 5 6 7 7 8 8
2 3 3 3 1 2 1 1 4 3 2 0 2 4 0 3 3 9 11 10 11 11 12 13 13 13 12 12 10 9 9 11 9 8 7 6 6 7 6 6 6 7 8 8
7 1 3 1 2 2 3 3 3 4 2 5 3 3 2 4 5 7 11 11 12 12 13 11 13 13 12 12 11 9 9 10 9 8 9 9 8 8 8 9 7 7 8 8
6 3 4 6 2 2 3 4 5 3 3 4 7 7 4 5 5 7 11 12 14 14 14 12 13 14 13 12 12 10 9 8 7 8 9 12 11 8 9 9 8 8 8 8
1 3 2 2 1 2 4 5 9 10 7 7 4 5 2 3 8 9 9 9 12 14 14 13 13 15 15 14 12 11 10 7 7 7 8 10 10 10 10 10 9 8 9 9
1 2 2 3 2 1 4 3 5 9 5 9 4 6 5 2 2 6 8 10 13 14 15 14 16 15 16 15 13 13 12 8 8 8 9 7 8 9 10 10 10 10 10 10
2 4 2 2 2 1 4 3 3 4 4 4 6 1 2 4 6 8 8 11 15 14 13 14 16 17 16 15 13 13 11 8 9 9 8 8 7 8 10 11 12 12 11 12
4 4 1 1 1 3 2 2 6 8 7 8 2 2 5 4 4 6 5 10 12 11 11 13 17 16 15 12 11 10 9 9 9 9 9 9 9 10 10 11 14 15 13 14
1 4 3 2 2 4 1 1 1 2 3 4 4 2 1 1 3 2 4 7 9 9 13 15 16 14 12 11 11 10 9 8 8 11 11 10 11 12 12 12 13 14 15 16
6 4 2 3 3 3 3 3 5 5 4 3 5 3 4 1 4 3 6 2 4 8 10 12 13 12 11 11 9 9 9 8 10 12 11 11 11 12 14 14 14 15 15 18
1 2 3 3 3 4 4 1 1 4 2 4 3 1 4 2 2 1 1 2 3 6 8 10 13 13 13 10 10 10 10 12 14 12 12 12 13 16 17 19 19 19 18 18
4 5 3 3 2 5 1 3 3 2 4 3 4 5 7 4 2 2 2 4 7 9 10 11 12 12 11 11 11 11 13 14 13 14 15 16 17 17 16 19 20 19 18 18
3 2 2 6 1 1 3 2 2 3 4 3 3 5 5 5 4 6 6 7 9 10 10 11 11 10 9 11 12 11 16 12 13 15 19 20 19 19 20 20 20 19 18 18
3 2 2 2 3 4 4 6 7 5 6 3 3 4 8 7 7 9 9 8 9 10 11 11 11 10 10 12 13 17 15 14 16 18 20 21 20 22 22 19 19 19 19 20
2 4 1 3 5 5 5 5 4 4 4 3 4 4 5 6 8 10 6 9 13 11 9 9 9 9 9 9 14 16 19 18 20 20 21 23 22 23 24 23 22 22 23 22
4 2 2 2 4 2 2 2 1 2 1 1 2 3 4 9 8 8 7 6 6 7 7 7 7 9 15 15 14 13 13 14 18 20 22 23 23 24 23 22 23 24 30 30
Wind_Direction
39 157 177 195 238 291 229 147 125 93 65 116 107 170 177 186 199 215 221 204 200 200 185 177 161 151 86 58 40 23 11 20 25 21 14 9 14 16 18 18 15 13 10 7
141 80 156 130 165 153 151 131 113 110 55 154 145 170 208 211 216 220 227 212 206 199 195 197 183 190 119 79 39 18 15 20 30 35 32 23 10 7 15 15 14 10 8 7
138 67 273 137 134 108 123 135 165 136 119 72 150 217 218 216 225 228 232 234 212 204 209 202 198 203 199 171 203 15 8 22 41 44 24 20 22 21 15 11 9 4 5 5
121 76 96 107 108 143 154 202 142 134 178 156 312 297 235 216 237 228 219 206 204 203 212 212 205 203 214 212 196 295 351 18 33 41 36 37 31 16 2 355 357 2 2 3
79 36 130 107 57 87 97 138 119 122 91 168 195 260 127 224 248 239 226 215 207 204 208 209 206 209 211 201 193 216 323 359 8 29 35 33 25 11 359 357 355 357 359 4
61 86 46 82 53 127 135 114 87 98 113 267 127 276 203 186 222 237 220 221 214 209 209 208 201 199 204 197 194 205 247 313 353 8 15 17 5 0 3 358 358 359 1 2
62 34 70 128 102 129 154 153 131 241 216 261 121 234 274 194 210 225 215 211 205 205 208 201 190 195 201 197 202 213 231 285 332 320 348 357 348 340 347 354 357 360 3 4
126 136 182 165 185 185 177 222 267 273 238 76 159 242 7 225 273 240 211 200 188 194 206 197 197 195 200 194 202 219 228 251 293 329 341 347 345 336 339 346 350 356 358 359
158 197 196 313 144 160 175 212 90 106 13 242 228 271 266 238 219 208 187 185 190 199 193 195 188 196 194 191 203 223 236 242 270 310 328 339 345 342 339 344 343 346 352 353
181 152 182 163 131 59 221 132 190 131 157 294 227 281 276 258 219 204 205 207 205 202 183 186 188 191 189 188 203 220 231 244 249 267 300 322 337 339 331 339 335 338 343 348
144 186 156 208 206 179 153 170 73 91 317 265 273 297 216 253 232 215 216 209 207 194 186 188 188 186 182 187 204 220 230 234 245 253 272 297 319 330 320 321 326 332 338 338
136 128 199 178 63 340 111 165 166 245 207 90 314 274 199 227 260 227 223 217 211 201 193 192 188 174 176 193 204 224 236 234 242 247 260 273 293 311 314 308 312 317 322 327
179 144 134 120 173 132 229 168 129 110 144 189 246 290 184 252 257 232 215 205 202 200 197 192 179 180 184 196 203 218 235 240 244 250 256 267 273 288 304 316 305 306 303 307
107 136 179 210 152 125 199 200 187 190 217 194 242 294 255 220 223 218 213 209 202 200 202 191 188 187 189 199 207 215 235 235 237 254 258 261 265 273 292 306 305 296 290 291
113 150 182 154 171 223 257 227 196 210 234 229 279 219 309 244 222 220 222 208 200 205 207 198 190 190 195 200 209 218 229 233 237 255 270 265 259 270 279 290 294 288 289 281
113 137 177 139 85 6 263 251 234 241 224 250 250 263 224 309 214 208 216 205 211 212 214 200 196 193 200 203 209 218 225 230 243 258 272 260 253 266 267 276 284 285 285 284
86 138 131 227 345 327 269 277 240 233 238 236 222 152 158 241 238 248 233 217 221 219 212 199 196 197 201 204 209 217 225 234 247 254 266 251 258 263 266 272 279 285 285 290
126 104 58 167 234 234 14 333 276 263 268 212 276 26 297 282 290 275 235 235 235 228 207 196 200 198 202 201 209 213 222 240 252 251 256 253 252 257 270 274 279 284 284 293
345 134 115 217 223 315 225 156 235 222 344 191 215 283 43 357 281 334 268 242 248 217 200 205 200 194 185 192 203 207 221 243 247 254 256 256 252 259 266 272 280 283 282 290
75 71 190 163 208 257 227 231 226 179 258 189 208 175 176 197 312 360 351 314 222 196 192 187 180 174 179 197 197 205 224 240 248 257 262 260 256 261 264 268 278 281 282 289
116 40 183 158 219 267 278 202 276 234 9 335 339 56 156 225 305 337 67 107 173 164 172 164 165 175 188 186 201 215 228 238 252 257 263 262 259 263 266 267 271 275 279 283
203 167 171 125 192 273 128 161 242 106 205 202 225 201 197 205 134 110 156 161 153 156 161 168 171 186 183 194 207 223 237 254 256 259 260 260 261 262 263 266 271 273 278 283
225 244 260 203 205 231 228 244 298 201 263 249 214 205 199 195 180 168 184 179 170 172 172 178 185 189 195 208 216 231 250 253 255 255 259 263 263 263 266 268 272 276 280 280
218 187 252 234 165 244 253 254 253 236 225 254 237 229 193 196 190 189 183 170 177 186 186 184 187 200 214 224 231 247 259 265 267 266 270 273 272 271 270 268 269 271 273 279
17 159 233 270 262 295 269 246 283 231 214 250 227 224 235 225 212 195 195 194 184 185 191 191 206 221 242 246 250 257 263 267 272 276 277 278 279 278 278 274 268 264 269 267
189 186 228 2 349 325 108 11 100 148 48 337 295 302 260 229 239 214 215 220 198 181 190 198 217 238 249 254 259 270 273 277 282 284 284 280 279 280 281 281 284 284 288 290